www.pogodaiklimat.ru

Погода и климат >> Архив погоды >> Мексика >> Soto La Marina


ПОГОДА в Soto La Marina

  • Прогноз погоды в Soto La Marina
  • Монитор погоды в Soto La Marina
  • Климат города

АРХИВ ПОГОДЫ в Soto La Marina

Время (UTC), дата Ветер
(напр.,м/с)
 
Видим.   Явления Облачность Т
(С)
Тd
(С)
f
(%)
Тe
(С)
Тes
(С)
Комфортность P
(гПа)
Po
(гПа)
Тmin
(С)
Tmax
(С)
R
(мм)
R24
(мм)
S
(см)
03 8.12 ЮВ 1 6000 м ясно +24.0 +17.9 69 +28 +28 душно 1015.2 1012.8
12 8.12 штиль 0 6000 м в посл. час морось 10/0 2000 м
[As op]
+17.2 +17.2 100 +17 +17 1017.6 1015.1 0.4
15 8.12 штиль 0 9000 м 10/0 2000 м
[As op]
+17.3 +15.9 91 +17 +18 1019.0 1016.5
18 8.12 С 1 10 км 10/3 300 м
[St As op]
+19.8 +14.1 70 +23 +25 комфорт 1019.3 1016.8 0.1
21 8.12 С 2 10 км 10/0 2000 м
[As op]
+19.0 +12.3 65 +21 +22 комфорт 1018.3 1015.8
00 9.12 С 1 8000 м 10/0 2000 м
[As op]
+17.0 +10.4 65 +18 +18 1019.4 1016.9 +17.0 +20.0
03 9.12 С 1 5000 м 5/5 600 м
[Cu med, cong]
+15.8 +10.5 71 +17 +17 1023.4 1020.9
06 9.12 С 1 5000 м слабый дождь 10/10 300 м
[Cb cap]
+14.8 +11.4 80 +15 +15 1024.1 1021.6 1
12 9.12 СЗ 2 6000 м {морось} 10/0 2000 м
[As op]
+12.0 +7.4 73 +11 +11 1025.5 1023.0 3
15 9.12 штиль 0 12 км 10/0 2000 м
[Ac As]
+13.3 +7.7 69 +13 +14 1027.3 1024.7
18 9.12 С 1 10 км 10/0 2000 м
[As op]
+14.8 +6.2 56 +15 +18 1028.2 1025.6 +11.2 +14.9
21 9.12 С 1 10 км 10/0 2000 м
[Ac As]
+17.9 +6.5 47 +19 +21 1024.9 1022.4
00 10.12 штиль 0 10 км 8/0 2000 м
[Ac und]
+17.2 +6.6 50 +17 +17 1024.9 1022.4 +11.2 +18.0
03 10.12 штиль 0 6000 м 4/4 600 м
[Cu med, cong]
+15.2 +6.4 56 +15 +15 1027.1 1024.6
06 10.12 штиль 0 6000 м ясно +12.0 +6.7 70 +12 +12 1027.0 1024.5 +11.2 +18.0
09 10.12 штиль 0 6000 м ясно +9.4 +5.4 76 +9 +9 1028.0 1025.5
12 10.12 штиль 0 10 км ясно +8.5 +5.1 79 +8 +8 1027.7 1025.1 +8.2 +18.0
15 10.12 штиль 0 10 км ясно +10.7 +5.9 72 +10 +14 1031.0 1028.4
18 10.12 С 1 10 км 4/0 2000 м
[Ac und]
+17.6 +7.3 51 +19 +27 1030.2 1027.6 +7.7 +17.7
21 10.12 н/о +20.1 +7.2 43 1025.3 1022.8
00 11.12 С 1 10 км ясно +18.4 +7.7 50 +20 +20 1027.5 1025.0 +7.7 +23.3
03 11.12 С 1 6000 м 4/0 2000 м
[Ac und]
+13.0 +7.9 71 +13 +13 1029.7 1027.2
06 11.12 штиль 0 6000 м ясно +10.8 +8.1 83 +10 +10 1030.3 1027.8 +7.7 +23.3
09 11.12 штиль 0 6000 м 4/0
[Ci]
+9.5 +7.8 89 +9 +9 1029.2 1026.6
12 11.12 штиль 0 6000 м ясно +8.4 +7.1 92 +7 +7 1029.8 1026.8 +8.3 +23.0
15 11.12 штиль 0 8000 м ясно +9.8 +6.1 78 +9 +13 1029.9 1027.3
18 11.12 штиль 0 10 км ясно +19.7 +11.0 57 +21 +34 комфорт 1027.4 1024.8 +7.6 +19.8
21 11.12 штиль 0 10 км 4/0
[Ci]
+25.1 +20.7 77 +31 +39 очень
душно
1022.8 1020.3
00 12.12 ЮВ 2 10 км 4/0
[Cs]
+20.0 +16.3 79 +23 +23 комфорт 1022.5 1020.0 +7.6 +26.0
03 12.12 штиль 0 5000 м ясно +15.3 +12.7 84 +15 +15 1023.7 1021.2
12 12.12 штиль 0 6000 м ясно +11.4 +9.8 90 +11 +11 1011.9 1015.8 +11.3 +26.0
15 12.12 штиль 0 10 км 10/0 2000 м
[As op]
+13.0 +9.9 81 +13 +13 1017.9 1015.4
18 12.12 штиль 0 10 км 6/0 2000 м
[Ac trans]
+21.5 +11.2 52 +23 +32 комфорт 1015.1 1012.6 +11.0 +21.6
21 12.12 ЮВ 5 10 км 8/0 2000 м
[Ac As]
+26.9 +13.5 44 +29 +30 жарко 1010.8 1008.3
00 13.12 ЮВ 2 8000 м 4/0 2000 м
[Ac trans]
+24.1 +16.6 63 +28 +28 душно 1010.3 1007.8 +11.0 +27.1
03 13.12 ЮВ 2 5000 м 10/0 2000 м
[As op]
+21.0 +17.1 78 +26 +26 душно 1012.3 1009.9
06 13.12 штиль 0 5000 м 10/10 2000 м
[Cu med, cong]
+20.5 +17.2 81 +24 +24 комфорт 1010.8 1008.4 +20.5 +27.1
09 13.12 штиль 0 5000 м 10/0
[As op]
+21.0 +18.8 87 +25 +25 комфорт 1009.4 1007.0
12 13.12 штиль 0 6000 м 1/0 2000 м
[Ac trans]
+18.2 +16.9 92 +19 +19 1009.7 1007.2 +18.1 +27.1
15 13.12 штиль 0 10 км 4/0 2000 м
[Ac trans]
+18.7 +16.9 89 +20 +22 1011.0 1008.5
18 13.12 штиль 0 10 км 6/6 600 м
[Cu med, cong]
+25.4 +14.3 50 +28 +33 жарко 1009.3 1006.8 +17.8 +25.4
21 13.12 ЮВ 1 10 км 6/3 600 м
[Cu med, cong Ci]
+28.4 +13.9 41 +30 +35 жарко 1006.8 1004.4
00 14.12 штиль 0 10 км 4/0
[Ci]
+26.7 +11.4 38 +28 +28 жарко 1007.9 1005.5 +17.8 +29.5
03 14.12 С 3 6000 м 4/4 930 м
[Sc diur, vesp]
+20.4 +5.3 37 +21 +21 комфорт 1015.8 1013.4
12 14.12 6000 м н/о +11.0 -1.0 43 +11 +11 1020.9 1018.4 +10.7 +29.5
15 14.12 штиль 0 10 км ясно +12.4 -1.2 39 +12 +16 1022.0 1019.5
18 14.12 С 3 10 км ясно +23.2 +1.0 23 +22 +31 комфорт 1022.2 1019.7 +10.2 +23.2
21 14.12 С 2 10 км ясно +24.7 +2.2 23 +24 +29 комфорт 1019.9 1017.4
00 15.12 С 2 10 км ясно +22.2 -1.2 21 +21 +21 комфорт 1019.5 1018.7 +10.2 +26.5

 

Местоположение метеостанции Soto La Marina (Мексика): широта 23.77 долгота -98.20 высота над уровнем моря 21 м.

В архиве по умолчанию представлена погода в Soto La Marina за последнюю неделю. Архивные данные за месяц целиком и за предыдущие месяцы, начиная с января 2011 года, Вы можете получить, выбрав интересующий диапазон дат из раскрывающегося списка и нажав кнопку "Ввод!".


*Определитесь, кто Вы:
робот инопланетянин человек

Внимание! Время в таблицах - всемирное. Для получения местного времени необходимо прибавить поправку, которая в Soto La Marina равна -6 ч.

Смотрите также архив погоды в соседних городах и на ближайших метеорологических станциях:

Погода в Ciudad Victoria (Мексика) (95 км)
Погода в Tampico (Мексика) (178 км)
Погода в Tamuin (Мексика) (205 км)
Погода в Rio Verde (Мексика) (274 км)
Погода в Matlapa (Мексика) (280 км)
Погода в Monterrey (Мексика) (304 км)
Погода в Tuxpan (Мексика) (324 км)
Погода в San Luis Potosi (Мексика) (328 км)
Погода в Saltillo (Мексика) (334 км)
Погода в Pachuca (Мексика) (409 км)

Пояснения к столбцам:

Ветер - указаны скорость ветра в м/с - средняя за 10 мин, порывы в срок и между сроками (в фигурных скобках) и направление, откуда дует ветер: С - северный, СВ - северо-восточный, В - восточный, ЮВ - юго-восточный, Ю - южный, ЮЗ - юго-западный, З - западный, СЗ - северо-западный.
Видимость - горизонтальная дальность видимости в метрах или километрах. При видимости от 1 до 10 км при отсутствии осадков обычно наблюдается дымка, при ухудшении видимости до 1 км и менее - туман. В сухую погоду видимость может ухудшаться дымом, пылью или мглою.
Явления - указаны атмосферные явления, наблюдавшиеся в срок или в последний час перед сроком; фигурными скобками обозначены явления, наблюдавшиеся между сроками (за 1-3 часа до срока); квадратными скобками обозначены град или гололедные отложения с указанием их диаметра в мм.
Облачность - указаны через наклонную черту общая и нижняя облачность в баллах и высота нижней границы облаков в метрах; квадратными скобками обозначены формы облаков: Ci - перистые, Cs - перисто-слоистые, Cc - перисто-кучевые, Ac - высококучевые, As - высокослоистые, Sc - слоисто-кучевые, Ns - слоисто-дождевые, Cu - кучевые, Cb - кучево-дождевые. Подробнее классификацию облаков см. в Атласе облаков (PDF).
T - Температура воздуха - температура, измеренная на высоте 2 м над землей.
Td - Температура точки росы - температура, при понижении до которой содержащийся в воздухе водяной пар достигнет насыщения.
f - Относительная влажность воздуха - влажноcть воздуха, измеренная на высоте 2 м над землей.
Te - Эффективная температура - температура, которую ощущает одетый по сезону человек в тени. Характеристика душности погоды. При расчете учитывается влияние влажности воздуха и скорости ветра на теплоощущения человека.
Tes - Эффективная температура на солнце - температура, которую ощущает человек, с поправкой на солнечный нагрев. Характеристика знойности погоды. Зависит от высоты солнца над горизонтом, облачности и скорости ветра. Ночью, в пасмурную погоду, а также при ветре 12 м/с и более поправка равна нулю.
P - Атмосферное давление - приведенное к уровню моря атмосферное давление.
Po - Атмосферное давление - измеренное на уровне метеостанции атмосферное давление.
Tmin - Минимальная температура - минимум температуры воздуха на высоте 2 м над землей.
Tmax - Максимальная температура - максимум температуры воздуха на высоте 2 м над землей.
R - Количество осадков - Количество выпавших осадков за период времени, мм. При наведении курсора мыши на число - период времени, за который выпало указанное количество осадков.
R24 - Количество осадков - Количество выпавших осадков за 24 часа, мм.
S - Снежный покров - Высота снежного покрова, см. При наведении курсора мыши на число - состояние снежного покрова и степень покрытия местности в баллах.